Weather History for Yuma MCAS, AZ

Change the Weather History Date:

Thursday, April 18, 2013

  Actual Average Record
Temperature  
Mean Temperature 67 °F 74 °F  
Max Temperature 78 °F 87 °F 107 °F (1954)
Min Temperature 56 °F 60 °F 40 °F (1878)
Degree Days  
Heating Degree Days 0 0  
Month to date heating degree days 0 12  
Since 1 July heating degree days 705 685  
Cooling Degree Days 2 9  
Month to date cooling degree days 143 126  
Year to date cooling degree days 352 279  
Growing Degree Days 17 (Base 50)    
Moisture  
Dew Point 12 °F    
Average Humidity 13    
Maximum Humidity 19    
Minimum Humidity 6    
Precipitation  
Precipitation 0.00 in 0.01 in 0.05 in (1933)
Month to date precipitation T 0.12  
Year to date precipitation 1.11 1.21  
Sea Level Pressure  
Sea Level Pressure 30.13 in    
Wind  
Wind Speed 10 mph (North)    
Max Wind Speed 23 mph    
Max Gust Speed 30 mph    
Visibility 10 miles    
Events      
T = Trace of Precipitation, MM = Missing Value Source: NWS Daily Summary

Daily Weather History Graph

Daily Weather History Graph

Search for Another Location

Airport:

Trip Planner

Search our weather history database for the weather conditions in past years. The results will help you decide how hot, cold, wet, or windy it might be!

Date:

Astronomy

Apr. 18, 2013 Rise Set
Actual Time 6:05 AM MST 7:10 PM MST
Civil Twilight 5:39 AM MST 7:36 PM MST
Nautical Twilight 5:09 AM MST 8:06 PM MST
Astronomical Twilight 4:38 AM MST 8:37 PM MST
Moon 12:24 PM MST 1:23 AM MST
Length of Visible Light 13h 56m
Length of Day
13h 05m
First Quarter, 53% of the Moon is Illuminated
Apr 18
First Quarter
Apr 25
Full
May 2
Last Quarter
May 9
New
May 17
First Quarter

Hourly Weather History & Observations

Time (MST) Temp. Dew Point Humidity Pressure Visibility Wind Dir Wind Speed Gust Speed Precip Events Conditions
12:55 AM 61.0 °F 12.0 °F 15% 30.07 in 10.0 mi North 4.6 mph - N/A   Clear
1:55 AM 61.0 °F 12.9 °F 15% 30.08 in 10.0 mi North 8.1 mph - N/A   Clear
2:55 AM 60.1 °F 12.0 °F 15% 30.08 in 10.0 mi North 6.9 mph - N/A   Clear
3:55 AM 57.0 °F 14.0 °F 18% 30.09 in 10.0 mi North 6.9 mph - N/A   Clear
4:55 AM 57.9 °F 12.9 °F 17% 30.12 in 10.0 mi North 10.4 mph - N/A   Clear
5:55 AM 57.9 °F 15.1 °F 19% 30.14 in 10.0 mi North 10.4 mph - N/A   Clear
6:55 AM 59.0 °F 17.1 °F 20% 30.17 in 10.0 mi North 15.0 mph - N/A   Clear
7:55 AM 64.0 °F 19.0 °F 18% 30.19 in 10.0 mi NNE 10.4 mph - N/A   Clear
8:55 AM 66.9 °F 15.1 °F 14% 30.19 in 10.0 mi North 17.3 mph 27.6 mph N/A   Clear
9:55 AM 69.1 °F 15.1 °F 13% 30.19 in 10.0 mi North 18.4 mph 27.6 mph N/A   Clear
10:55 AM 72.0 °F 12.9 °F 10% 30.19 in 10.0 mi NNE 13.8 mph 21.9 mph N/A   Clear
11:55 AM 73.9 °F 8.1 °F 8% 30.18 in 10.0 mi North 11.5 mph 25.3 mph N/A   Clear
12:55 PM 73.9 °F 9.0 °F 8% 30.16 in 10.0 mi NNW 12.7 mph 25.3 mph N/A   Clear
1:55 PM 75.9 °F 9.0 °F 8% 30.13 in 10.0 mi North 18.4 mph 28.8 mph N/A   Clear
2:55 PM 75.9 °F 7.0 °F 7% 30.12 in 10.0 mi North 12.7 mph 23.0 mph N/A   Clear
3:55 PM 77.0 °F 6.1 °F 7% 30.09 in 10.0 mi North 15.0 mph 23.0 mph N/A   Clear
4:55 PM 77.0 °F 3.9 °F 6% 30.09 in 10.0 mi North 11.5 mph 23.0 mph N/A   Clear
5:55 PM 75.9 °F 7.0 °F 7% 30.09 in 10.0 mi North 10.4 mph - N/A   Clear
6:55 PM 73.0 °F 10.0 °F 9% 30.09 in 10.0 mi North 6.9 mph - N/A   Clear
7:55 PM 70.0 °F 10.0 °F 10% 30.11 in 10.0 mi NNE 9.2 mph - N/A   Clear
8:55 PM 66.9 °F 12.9 °F 12% 30.12 in 10.0 mi North 4.6 mph - N/A   Clear
9:55 PM 64.9 °F 18.0 °F 16% 30.13 in 10.0 mi Calm Calm - N/A   Clear
10:55 PM 64.0 °F 10.9 °F 13% 30.13 in 10.0 mi NNW 3.5 mph - N/A   Clear
11:55 PM 61.0 °F 17.1 °F 18% 30.12 in 10.0 mi NW 3.5 mph - N/A   Clear